Regional Weather Roundup
Issued by NWS

Home | Current Version | Previous Version | Text Only | Print | Product List | Glossary On
Versions: 1 2 3 4 5 6 7 8 9 10 11 12 13 14 15 16 17 18 19 20 21 22 23 24 25 26 27 28 29 30 31 32 33 34 35 36 37 38 39 40 41 42 43 44 45 46 47 48 49 50
000
ASUS43 KBIS 111910
RWRND

NORTH DAKOTA REGIONAL WEATHER ROUNDUP
NATIONAL WEATHER SERVICE BISMARCK ND
100 PM CST MON DEC 11 2017

NOTE: "FAIR" INDICATES FEW OR NO CLOUDS BELOW 12,000 FEET WITH NO
SIGNIFICANT WEATHER AND/OR OBSTRUCTIONS TO VISIBILITY.


NDZ001>003-009>011-017-112000-
NORTHWEST NORTH DAKOTA

CITY           SKY/WX    TMP DP  RH WIND       PRES   REMARKS
WILLISTON      CLOUDY    37  28  70 N16G23    30.35R
MINOT          CLOUDY    29  20  69 N12       30.29R WCI  19
MINOT AFB      CLOUDY    28  20  70 N14       30.28R WCI  17
$$

NDZ018>021-031>035-040>046-112000-
SOUTHWEST NORTH DAKOTA

CITY           SKY/WX    TMP DP  RH WIND       PRES   REMARKS
BISMARCK       CLOUDY    38  25  59 N21G30    30.26R
DICKINSON      CLOUDY    35  30  82 NW17G26   30.28R
GARRISON         N/A     33  24  69 N9G16     30.27R
HETTINGER ARPT CLOUDY    35  28  75 NW22G29   30.30R
$$

NDZ004>008-012>016-024-026-027-054-112000-
NORTHEAST NORTH DAKOTA

CITY           SKY/WX    TMP DP  RH WIND       PRES   REMARKS
GRAND FORKS    CLOUDY    17  12  80 N30       30.22R BLWGSNOWWCI  -3
GRND FRKS AFB  MOSUNNY   19  11  71 N21G28    30.23R WCI   2
DEVILS LAKE    FLURRIES  20  15  81 N18       30.26R WCI   5
$$

NDZ022-023-025-028>030-036>039-047>053-112000-
SOUTHEAST NORTH DAKOTA

CITY           SKY/WX    TMP DP  RH WIND       PRES   REMARKS
FARGO          CLOUDY    21  15  78 N33G44    30.18R WCI   2
JAMESTOWN      PTSUNNY   23  17  78 N24G32    30.21R WCI   7
$$





USA.gov is the U.S. government's official web portal to all federal, state and local government web resources and services.